Ash Shahaniyah, Qatar

5:02 AM +03 on August 22, 2017 (GMT +0300)
Ash Shahaniyah

Weather History for WKQIR - April, 2013

Change the Weather History Date:

Wednesday, April 24, 2013

  Actual Average Record
Temperature  
Mean Temperature 84 °F -  
Max Temperature 92 °F - - ()
Min Temperature 74 °F - - ()
Cooling Degree Days 18    
Growing Degree Days 34 (Base 50)    
Moisture  
Dew Point 41 °F    
Average Humidity 25    
Maximum Humidity 45    
Minimum Humidity 11    
Precipitation  
Precipitation 0.00 in - - ()
Sea Level Pressure  
Sea Level Pressure 29.93 in    
Wind  
Wind Speed 11 mph ()    
Max Wind Speed 18 mph    
Max Gust Speed 24 mph    
Visibility 6.2 miles    
Events      
T = Trace of Precipitation, MM = Missing Value Source: Averaged Metar Reports

Daily Weather History Graph

Daily Weather History Graph

Search for Another Location

Airport or City:

Trip Planner

Search our weather history database for the weather conditions in past years. The results will help you decide how hot, cold, wet, or windy it might be!

Date:

Astronomy

Apr. 24, 2013 Rise Set
Actual Time 5:04 AM +03 6:02 PM +03
Civil Twilight 4:40 AM +03 6:26 PM +03
Nautical Twilight 4:12 AM +03 6:54 PM +03
Astronomical Twilight 3:43 AM +03 7:22 PM +03
Moon 4:44 PM +03 (4/24) 3:44 AM +03 (4/24)
Length of Visible Light 13h 45m
Length of Day
12h 57m
Waxing Gibbous, 97% of the Moon is Illuminated
Apr 24
Waxing Gibbous
Apr 25
Full
May 2
Last Quarter
May 10
New
May 18
First Quarter

Hourly Weather History & Observations

Time (+03) Temp. Dew Point Humidity Pressure Visibility Wind Dir Wind Speed Gust Speed Precip Events Conditions
12:55 AM 76.3 °F 52.9 °F 44% 29.89 in 6.2 mi North 11.5 mph - N/A   Clear
1:55 AM 75.4 °F 50.4 °F 41% 29.87 in 6.2 mi North 12.7 mph - N/A   Clear
2:55 AM 75.6 °F 50.7 °F 42% 29.87 in 6.2 mi NNE 11.5 mph - N/A   Clear
3:55 AM 75.9 °F 47.8 °F 37% 29.88 in 6.2 mi NNE 11.5 mph - N/A   Clear
4:55 AM 75.9 °F 42.8 °F 31% 29.89 in 6.2 mi NNE 8.1 mph - N/A   Clear
5:55 AM 76.5 °F 39.6 °F 27% 29.91 in 6.2 mi NNE 6.9 mph - N/A   Clear
6:55 AM 79.7 °F 37.4 °F 22% 29.94 in 6.2 mi NNE 6.9 mph - N/A   Clear
7:55 AM 84.2 °F 35.8 °F 18% 29.95 in 6.2 mi NNE 11.5 mph - N/A   Clear
8:55 AM 87.8 °F 33.3 °F 14% 29.96 in 6.2 mi NNE 16.1 mph - N/A   Partly Cloudy
9:55 AM 89.8 °F 33.6 °F 14% 29.95 in 6.2 mi NNE 18.4 mph - N/A   Mostly Cloudy
10:55 AM 91.8 °F 32.0 °F 12% 29.95 in 6.2 mi NNE 17.3 mph - N/A   Mostly Cloudy
11:55 AM 92.3 °F 31.3 °F 11% 29.94 in 6.2 mi NNE 16.1 mph 20.7 mph N/A   Mostly Cloudy
12:55 PM 92.5 °F 33.4 °F 12% 29.92 in 6.2 mi NNE 16.1 mph 24.2 mph N/A   Scattered Clouds
1:55 PM 91.8 °F 34.0 °F 13% 29.91 in 6.2 mi North 15.0 mph - N/A   Scattered Clouds
2:55 PM 90.1 °F 35.1 °F 14% 29.90 in 6.2 mi NNE 15.0 mph - N/A   Scattered Clouds
3:55 PM 89.2 °F 34.0 °F 14% 29.91 in 6.2 mi NNE 12.7 mph - N/A   Partly Cloudy
4:55 PM 88.2 °F 33.8 °F 14% 29.92 in 6.2 mi NNE 13.8 mph - N/A   Partly Cloudy
5:55 PM 85.8 °F 35.2 °F 16% 29.94 in 6.2 mi NNE 11.5 mph - N/A   Clear
6:55 PM 84.2 °F 37.8 °F 19% 29.95 in 6.2 mi NNE 11.5 mph - N/A   Clear
7:55 PM 82.4 °F 43.5 °F 25% 29.96 in 6.2 mi NNE 9.2 mph - N/A   Clear
8:55 PM 79.7 °F 49.8 °F 35% 29.98 in 6.2 mi North 9.2 mph - N/A   Clear
9:55 PM 78.3 °F 50.4 °F 38% 29.98 in 6.2 mi North 6.9 mph - N/A   Clear
10:55 PM 76.6 °F 50.2 °F 39% 29.96 in 6.2 mi North 5.8 mph - N/A   Clear
11:55 PM 74.1 °F 51.3 °F 45% 29.95 in 6.2 mi NNW 12.7 mph - N/A   Clear